Reflectivity
-20 -20 -20 -20 -20 -20 -20 -20 -20 -20 -20 -20 -20 -20 -20 -20 -20 -20 -20 -20 -20 -20 -20 -20 -20 -20 -20 -20 -20 -20 -20 -20 -20 -20 -20 -20 -20 -20 -20 -20 -20 -20 -20 -20 -20 -20 -20 -20 -20
-20 -20 -20 -20 -20 -20 -20 -20 -20 -20 -20 -20 -20 -20 -20 -20 -20 -20 -20 -20 -20 -20 -20 -20 -20 -20 -20 -20 -20 -20 -20 -20 -20 -20 -20 -20 -20 -20 -20 -20 -20 -20 -20 -20 -20 -20 -16 -20 -20
-20 -20 -20 -20 -20 -20 -20 -20 -20 -20 -20 -20 -20 -20 -20 -20 -20 -20 -20 -20 -20 -20 -20 -20 -20 -20 -20 -20 -20 -20 -20 -20 -20 -20 -20 -20 -20 -20 -20 -20 -20 -20 -20 -20 -14 -20 -20 -20 -20
-20 -20 -20 -20 -20 -20 -20 -20 -20 -20 -20 -20 -20 -20 -20 -20 -20 -20 -20 -20 -20 -20 -20 -20 -20 -20 -20 -20 -20 -20 -20 -20 -20 -20 -20 -20 -20 -20 -20 -20 -20 -20 -20 -20 -13 3 -20 -20 -20
-20 -20 -20 -20 -20 -20 -20 -20 -20 -20 -20 -20 -20 -20 -20 -20 -20 -20 -20 -20 -20 -20 -20 -20 -20 -20 -20 -20 -20 -20 -20 -20 -20 -20 -20 -20 -20 -20 -20 -20 -20 -20 -20 -20 -14 -18 -17 -20 -20
-20 -20 -20 -20 -20 -20 -20 -20 -20 -20 -20 -20 -20 -20 -20 -20 -20 -20 -20 -20 -20 -20 -20 -20 -20 -20 -20 -20 -20 -20 -20 -20 -20 -20 -20 -20 -20 -20 -20 -20 -20 -11 5 -20 -20 -20 -20 -20 -20
-20 -20 -20 -20 -20 -20 -20 -20 -20 -20 -20 -20 -20 -20 -20 -20 -20 -20 -20 -20 -20 -20 -20 -20 -20 -20 -20 -20 -20 -20 -20 -20 -20 -20 -20 -20 -20 -20 -20 -20 -20 -20 -20 -20 -20 -20 -20 -20 -20
-20 -20 -20 -20 -20 -20 -20 -20 -20 -20 -20 -20 -20 -20 -20 -20 -20 -20 -20 -20 -20 -20 -20 -20 -20 -20 -20 -20 -20 -20 -20 -20 -20 -20 -20 -20 -20 -20 -20 -20 -20 -20 -20 -20 -20 -20 -20 -20 -20
-20 -20 -20 -20 -20 -20 -20 -20 -20 -20 -20 -20 -20 -20 -20 -20 -20 -20 -20 -20 -20 -20 -20 -20 -20 -20 -20 -20 -20 -20 -20 -20 -20 -20 -20 -20 -20 -20 -20 -20 -20 -20 -20 -20 -20 -20 -20 -20 -20
-20 -20 -20 -20 -20 -20 -20 -20 -20 -20 -20 -20 -20 -20 -20 -20 -20 -20 -20 -20 -20 -20 -20 -20 -20 -11 -19 -20 -20 -20 -20 -20 -20 -20 -20 -20 -20 -20 -20 -20 -20 -20 -20 -20 18 -20 -20 -20 -20
-20 -20 -20 -20 -20 -20 -20 -20 -20 -20 -20 -20 -20 -20 -20 -20 -20 -20 -20 -20 -20 -20 -20 -20 -20 -20 5 -20 -20 -20 -20 -20 -20 -20 -20 -20 -20 -20 -20 -20 -20 -20 -20 -20 -20 -20 -20 -20 -20
-20 -20 -20 -20 -20 -20 -20 -20 -20 -20 -20 -20 -20 -20 -20 -20 -20 -20 -20 -20 -20 -20 -19 -20 -20 -20 -20 -20 -20 -20 -20 -6 -20 -20 -20 -20 -20 -20 -20 -20 -20 -20 -20 -20 -20 -20 -20 -20 -20
-20 -20 -20 -20 -20 -20 -20 -20 -20 -20 -20 -20 -20 -20 -20 -20 -20 -20 -20 -20 -20 -20 3 -20 -20 -20 -20 -20 -20 -20 -20 -16 -20 -20 -20 -20 -16 -20 -19 -20 -20 -20 -20 -20 -20 -20 -20 -20 -16
-20 -20 -20 -20 -20 -20 -20 -20 -20 -20 -20 -20 -20 -20 -20 -20 -20 -20 -20 -20 -20 -20 -20 -20 -20 -20 -20 -20 -20 -20 -20 -20 -20 -20 -20 -20 -16 9 18 -17 -18 -20 -20 -20 -20 -20 -20 -14 -18
-20 -20 -20 -20 -20 -20 -20 -20 -20 -20 -20 -20 -20 -20 -20 -20 -20 -20 -20 -20 -20 -20 -20 -20 -20 -20 -20 -20 -20 -20 -20 -20 -20 -20 -20 1 7 -11 -18 4 -0 -20 2 -15 -20 -20 -20 -20 -20
-20 -20 -20 -20 -20 -20 -20 -20 -20 -20 -20 -20 -20 -20 -20 -20 -20 -20 -20 -20 -20 -20 -20 -20 -20 -20 -20 -20 -20 -20 -13 -20 -20 -20 -3 14 14 -20 -19 -17 13 -19 6 -7 -20 -20 -20 -19 -20
-20 -20 -20 -20 -20 -20 -20 -20 -20 -20 -20 -20 -20 -20 -20 -20 -20 -20 -20 -20 -20 -20 -20 -20 -20 -20 -20 -20 -20 -20 -2 -20 -20 -20 -20 8 11 7 -20 -11 -19 -18 13 10 -20 -20 -20 -20 -7
-20 -20 -20 -20 -20 -20 -20 -20 -20 -20 -20 -20 -20 -20 -20 -20 -20 -20 -20 -20 -20 -20 -20 -20 -20 -20 -20 -20 4 -20 -19 -20 -20 -13 -4 -16 4 -2 -20 -17 -20 10 12 13 -20 -20 -20 -20 -18
-20 -20 -20 -20 -20 -20 -20 -20 -20 -20 -20 -20 -20 -20 -20 -20 -20 -20 -20 -20 -20 -20 -20 -20 -20 -20 -20 1 -20 -18 -20 -20 -20 -16 -4 -19 12 -17 -20 -20 -17 6 -5 11 7 8 -20 8 1
-20 -20 -20 -20 -20 -20 -20 -20 -20 -20 -20 -20 -20 -20 -20 -20 -20 -20 -20 -20 -20 -20 -20 -20 -20 -20 -20 -20 -20 -18 -2 -18 -20 5 -10 -20 -20 -20 -20 -20 -20 -6 13 6 3 -4 -2 8 3
-20 -20 -20 -20 -20 -20 -20 -20 -20 -20 -20 -20 -20 -20 -20 -20 -20 -20 -20 -20 -20 -20 -20 -20 -20 -20 -20 -20 -20 -18 -16 8 15 16 -15 37 21 -18 -8 -19 -14 10 1 2 -9 -20 2 4 15
-20 -20 -20 -20 -20 -20 -20 -20 -20 -20 -20 -20 -20 -20 -20 -20 -20 -20 -20 -20 -20 -20 -20 -20 -20 -20 -20 -20 -8 -20 -20 -20 -19 -20 -15 26 46 34 2 -8 7 7 -20 -0 -20 3 19 20 19
-20 -20 -20 -20 -20 -20 -20 -20 -20 -20 -20 -20 -20 -20 -20 -20 -20 -20 -20 -20 -20 -20 -20 -20 -20 -20 -20 -20 -20 3 -20 -18 -11 -17 -7 21 25 7 -0 -6 9 6 -20 -10 -2 -9 14 18 28
-20 -20 -20 -20 -20 -20 -20 -20 -20 -20 -20 -20 -20 -20 -20 -20 -20 -20 -20 -20 -20 -20 -20 -20 -20 -19 5 -15 -20 -19 -20 -20 -20 -20 -20 -12 -9 -14 4 7 7 -12 -17 13 -14 -15 19 19 21
-20 -20 -20 -20 -20 -20 -20 -20 -20 -20 -20 -20 -20 -20 -20 -20 -20 -20 -20 -20 -20 -20 -20 -20 -4 -19 -6 -13 -20 -20 -20 -20 -20 -20 28 -14 5 -20 0 -9 -14 5 -6 -3 -8 -9 -6 15 22
-8 -20 -20 -20 -20 -20 -20 -20 -20 -20 -20 -20 -20 -20 -20 -20 -20 -19 3 -10 -20 -20 -15 -20 -1 -5 14 6 15 -6 -19 -20 -19 20 -3 -20 -13 -20 -19 -20 -1 -3 -20 -13 -20 -1 -4 7 12
-1 -20 -20 -20 -20 -20 -20 -20 -20 -20 -20 -20 -20 -20 -20 -20 -20 -13 2 12 -15 -14 21 5 8 1 27 23 28 12 -16 -17 -17 18 31 32 -20 -20 -20 6 4 -18 -20 -14 -20 -2 7 16 -6
-20 -20 -20 -20 -20 -20 -20 -20 -20 -20 -20 -20 -20 -20 -20 -20 -20 3 -20 23 11 3 9 9 12 10 27 8 10 8 -8 -20 -2 20 36 15 -20 -20 -20 -20 1 -9 -5 16 8 11 15 5 13
-20 -20 -20 -20 -20 -4 -20 -20 -20 -20 -20 -20 -20 -20 -20 -20 -20 -5 -20 -17 -7 17 19 18 26 21 27 13 22 7 -18 -20 -14 33 6 12 -7 -20 -20 -16 1 15 13 -6 1 9 14 11 12
-20 -8 -20 -20 -19 -20 -3 -19 -20 -20 -20 -20 -20 -20 -20 -16 -20 10 -18 1 -14 -0 4 -17 7 31 28 1 -12 -9 3 -9 35 28 27 25 -20 -20 -20 8 12 -0 -20 -19 -20 -20 -20 -4 -19
Wind_Speed
2 3 3 5 5 6 4 8 1 6 5 1 5 5 7 6 5 7 4 6 3 10 11 13 16 14 12 13 14 14 12 11 14 16 17 18 19 18 18 19 17 17 17 17 15 15 13 11 10
1 2 5 3 6 2 7 5 6 4 4 9 7 4 4 8 4 5 2 5 5 9 9 9 14 16 13 13 13 14 14 11 12 15 17 18 18 18 18 17 16 16 18 17 16 15 13 10 11
2 4 5 5 5 7 6 5 2 5 9 5 6 3 5 6 6 6 4 11 9 9 10 10 14 13 13 13 12 12 12 11 11 11 13 15 17 17 16 15 16 17 18 17 17 14 12 12 12
2 4 5 4 9 7 7 2 3 7 4 2 2 8 6 8 3 3 4 12 11 8 8 12 15 15 15 14 14 12 12 11 10 10 11 12 14 15 14 14 15 17 17 17 16 14 12 12 13
5 3 3 3 6 5 7 5 2 6 5 5 2 8 6 9 10 1 6 12 16 11 10 12 15 16 16 15 15 13 13 12 11 11 11 11 13 14 14 13 13 15 15 15 12 14 12 11 12
4 3 2 6 6 4 6 4 4 2 4 7 5 5 7 7 9 6 5 2 3 9 10 11 16 16 16 15 14 13 12 12 11 11 12 11 11 11 12 12 12 12 13 12 11 12 13 12 12
6 4 5 3 4 3 6 4 4 2 5 5 4 6 6 8 6 6 5 6 5 5 5 7 10 12 13 13 14 13 13 12 12 11 10 10 9 9 10 11 10 11 9 9 11 14 14 14 12
5 4 3 6 5 6 5 2 1 1 5 6 0 4 9 8 8 5 8 6 5 5 6 7 9 9 7 9 13 14 14 13 13 12 11 10 10 9 10 10 10 10 11 11 14 14 13 12 11
4 1 3 5 6 5 2 2 2 2 4 3 3 4 8 7 2 5 5 4 3 2 4 5 7 10 9 8 6 10 13 13 12 11 11 8 5 6 7 7 10 12 11 11 12 13 13 12 13
5 4 9 7 5 3 4 1 7 2 4 7 11 6 8 4 3 3 2 1 2 4 2 10 9 8 10 7 7 5 9 8 9 9 7 5 5 5 5 6 11 11 11 12 11 12 13 11 6
5 7 5 4 6 3 3 7 4 3 6 8 13 12 9 6 7 6 5 6 6 4 4 8 9 11 11 8 7 4 5 6 7 8 7 5 4 4 3 3 3 4 9 5 6 6 4 5 5
4 7 7 6 8 6 6 3 7 6 11 10 11 11 6 10 9 8 8 7 8 9 9 7 6 9 12 8 8 8 8 7 6 6 8 7 5 5 5 4 4 4 3 6 5 4 5 5 5
5 5 7 7 9 8 7 9 9 8 12 9 9 10 9 9 11 9 9 8 9 7 10 11 11 8 7 10 8 9 10 8 9 7 8 8 7 7 6 5 5 4 4 6 7 7 6 6 7
3 5 7 6 8 5 6 6 7 9 9 8 5 10 11 9 11 9 9 10 9 10 10 11 15 14 9 10 9 8 8 10 9 9 8 11 8 7 6 6 5 5 6 5 7 8 7 7 8
4 5 6 7 5 7 2 3 6 9 1 7 9 9 9 9 9 10 11 11 11 10 13 12 15 15 16 14 10 8 8 8 8 9 11 11 9 9 8 6 5 5 5 6 4 5 5 6 5
2 2 2 4 1 6 6 6 10 4 2 10 10 10 9 10 9 8 9 10 10 9 10 12 12 15 18 16 12 8 8 7 7 8 8 11 10 11 8 7 6 5 5 6 5 7 7 6 5
3 4 3 7 4 4 3 2 5 10 7 8 8 9 10 11 11 9 10 9 12 10 10 11 12 15 19 17 13 11 10 8 7 7 9 11 10 10 9 7 6 7 6 6 6 5 6 7 6
5 3 3 4 5 2 8 10 9 8 5 9 9 8 8 8 8 13 12 12 12 14 10 12 11 16 17 12 10 9 9 9 9 9 11 13 9 12 9 7 7 8 7 6 6 8 5 5 6
2 3 5 5 10 4 10 15 10 10 5 8 7 7 7 8 6 8 11 12 14 9 13 11 10 15 12 11 11 10 13 11 10 11 15 15 11 12 10 7 8 8 8 8 8 5 9 4 5
5 4 7 7 8 5 11 19 10 8 5 3 4 4 4 7 12 13 14 10 10 13 10 13 14 14 15 13 13 7 11 11 9 7 9 13 14 13 10 10 9 10 7 8 9 8 4 4 9
5 5 6 8 5 5 5 11 2 3 4 2 1 2 1 5 12 15 15 15 12 13 12 12 12 15 15 17 11 4 6 5 4 7 8 9 13 14 12 11 10 10 9 8 10 9 10 6 7
4 9 9 7 3 4 2 9 2 3 4 2 6 7 7 11 13 12 14 16 16 14 13 14 13 16 15 16 15 18 13 11 10 10 8 6 9 12 12 12 10 13 9 9 10 8 8 6 8
9 7 7 5 5 4 3 1 5 3 3 3 7 8 8 10 11 15 15 16 18 15 15 14 15 15 15 16 18 15 13 8 7 8 14 13 11 10 11 11 13 10 8 9 10 10 9 8 7
3 2 2 4 2 3 10 7 5 2 4 2 2 4 7 9 12 14 15 16 16 14 15 15 16 15 13 17 17 17 16 11 11 12 10 11 10 8 11 12 10 9 9 10 9 9 10 9 8
3 4 2 3 1 5 5 3 8 4 4 3 3 2 6 8 12 13 17 19 19 19 19 17 17 17 11 14 14 13 11 12 15 17 14 15 10 9 11 10 9 8 10 9 9 9 10 9 9
4 6 5 6 4 4 3 6 6 4 3 1 5 5 6 10 13 13 16 17 18 20 20 19 19 19 9 10 10 8 7 5 4 6 8 10 10 9 10 9 8 11 8 8 9 8 7 9 8
3 3 2 2 2 2 4 6 5 3 4 7 7 9 10 11 14 16 17 18 18 19 20 18 19 18 9 9 9 9 9 8 6 6 5 7 9 7 8 8 8 9 10 10 10 6 8 9 10
5 2 3 4 2 5 3 3 4 6 6 5 9 9 12 13 15 16 16 17 17 18 19 19 17 17 4 5 7 8 8 8 9 9 7 10 8 7 8 9 9 9 8 8 8 6 7 9 8
4 2 4 2 2 3 2 4 5 4 4 6 8 10 12 14 14 14 15 15 15 16 17 18 18 18 14 4 6 9 7 9 8 7 7 9 11 9 9 10 9 7 6 6 5 5 6 9 9
1 4 4 3 2 2 2 5 1 4 8 8 8 10 12 12 13 14 15 16 17 17 19 19 18 17 16 13 1 6 9 7 13 9 8 8 9 8 7 8 7 6 6 6 6 7 7 9 10
Wind_Direction
113 96 85 43 58 64 268 257 250 296 318 78 249 258 237 237 196 234 326 163 157 137 148 153 151 154 159 160 155 147 146 147 138 134 134 138 143 149 148 150 153 154 151 151 155 155 152 146 125
101 97 48 85 101 122 254 238 222 217 274 304 322 332 310 276 237 287 117 185 159 140 142 147 148 166 162 162 153 148 147 153 145 140 141 142 144 148 150 151 151 151 150 153 158 159 154 139 131
111 47 92 128 152 202 232 223 17 306 302 329 333 268 301 279 317 280 179 142 134 142 144 149 151 158 161 158 154 145 142 150 153 147 142 142 144 147 150 148 151 155 156 158 163 157 149 149 140
98 18 36 122 218 244 220 191 313 339 347 344 332 306 309 244 258 210 156 136 134 139 147 153 156 161 163 161 156 149 145 150 149 143 144 145 144 148 152 154 160 159 161 164 167 164 159 156 151
35 52 90 236 246 252 253 197 282 300 269 274 349 291 278 316 325 153 174 155 152 156 156 160 162 168 167 164 159 155 153 153 151 150 150 158 160 158 158 162 167 168 169 167 158 157 163 160 152
46 96 106 231 235 242 263 217 187 235 274 296 359 301 270 324 12 357 353 358 83 152 155 164 169 169 169 167 161 157 156 158 159 158 160 164 168 167 163 172 174 172 162 170 171 157 160 155 152
124 98 220 220 250 267 231 211 201 178 297 286 316 321 277 325 358 65 27 11 78 108 142 164 177 175 169 166 162 162 162 165 165 166 167 165 172 169 174 177 176 172 174 175 159 155 155 160 155
112 118 191 227 193 258 253 255 205 336 268 296 331 285 308 302 2 56 74 45 23 102 159 169 185 183 181 175 170 170 169 171 169 170 174 171 175 178 182 185 186 167 157 157 156 157 160 164 134
124 69 230 229 173 235 253 28 253 275 255 319 263 309 276 314 297 57 60 45 7 65 141 172 187 196 190 195 187 175 177 171 171 174 177 172 169 182 187 184 181 167 153 162 158 156 154 153 145
146 161 215 215 215 253 300 337 290 278 294 294 300 285 278 266 302 110 112 227 248 278 230 194 192 193 193 194 197 181 190 191 177 178 178 166 166 170 168 173 179 167 158 156 158 158 155 148 147
191 210 220 236 235 227 234 282 244 226 266 239 282 292 311 310 320 256 194 218 198 218 204 218 209 189 189 197 193 188 193 193 187 166 167 161 156 153 140 146 152 136 142 147 150 135 136 145 144
224 237 233 252 239 252 225 230 279 211 250 238 261 269 281 288 284 262 279 239 192 201 190 197 203 220 199 186 187 197 194 194 191 176 161 164 169 163 151 159 164 146 149 154 160 154 148 152 165
226 243 249 251 270 248 253 235 235 272 263 261 266 290 267 268 275 265 247 263 275 217 199 197 177 212 221 201 192 192 200 192 189 187 172 169 175 171 158 157 166 143 148 167 174 172 177 174 170
214 215 251 261 249 248 234 247 138 247 262 297 284 267 278 266 253 280 269 251 238 239 230 208 193 193 183 212 207 202 198 198 190 184 193 175 178 170 168 166 174 162 172 176 187 185 173 172 173
255 285 293 245 227 235 131 278 224 245 274 289 291 283 275 257 270 249 249 246 239 230 230 207 202 192 186 202 199 196 199 196 191 190 187 190 175 174 163 158 174 169 176 163 146 147 135 147 153
290 89 276 288 246 258 145 242 270 293 8 291 289 294 289 286 273 257 258 253 264 255 227 226 212 195 198 195 193 199 191 187 186 182 185 192 184 179 160 163 180 164 170 174 174 166 163 158 158
341 250 236 307 284 266 160 238 282 299 296 272 270 275 291 315 329 336 330 309 291 259 245 234 215 202 202 199 189 190 193 187 184 179 186 189 186 176 170 168 170 163 170 180 173 173 170 174 163
206 232 242 256 273 319 292 273 261 262 264 280 287 299 313 339 329 327 322 323 324 310 253 241 222 211 202 201 190 186 188 185 185 190 191 184 185 178 169 162 161 170 175 177 164 171 173 168 169
197 213 239 255 262 331 281 287 272 280 277 289 319 19 354 330 298 310 320 326 323 333 329 254 223 215 197 196 192 190 196 193 198 187 188 184 182 178 170 163 165 175 179 178 173 162 163 150 151
221 250 265 270 265 160 282 284 274 257 244 120 98 352 323 325 328 324 325 325 327 318 317 321 251 218 200 195 199 191 192 203 199 184 198 177 177 177 174 167 172 178 172 177 174 173 156 167 173
208 196 242 222 342 273 295 288 229 269 88 111 89 267 343 340 327 322 327 320 328 323 320 307 300 254 208 197 188 120 119 89 129 175 175 200 182 169 175 174 175 176 179 188 183 177 178 178 186
235 208 228 253 158 232 106 290 245 109 203 359 310 341 1 349 337 320 326 324 323 323 320 308 300 286 218 190 187 190 189 180 191 184 148 161 216 177 167 185 182 189 178 186 182 183 193 181 197
223 239 227 211 195 136 236 218 246 72 11 289 341 13 3 339 320 322 327 327 317 326 318 313 308 279 215 191 191 191 193 181 162 174 163 178 188 155 168 184 191 186 182 189 175 179 192 194 205
183 155 87 66 146 239 200 172 281 269 188 293 20 12 342 324 327 326 329 331 320 326 328 326 319 287 204 196 192 193 190 164 158 164 163 176 175 160 184 184 183 189 183 185 176 182 190 194 204
123 101 282 319 349 225 167 199 257 240 252 228 279 323 349 335 321 347 341 338 331 336 339 332 330 312 200 201 202 191 187 178 173 169 172 171 168 174 179 170 178 184 189 185 173 181 186 195 203
183 169 168 230 207 248 154 238 250 212 204 144 65 21 358 342 317 11 343 339 336 339 338 334 330 325 184 185 197 186 151 149 157 193 173 171 173 166 159 165 179 190 171 183 189 188 187 196 205
162 148 200 261 123 277 216 298 316 213 279 89 31 4 353 342 336 358 348 343 346 344 337 334 327 324 232 180 173 168 155 149 146 150 177 188 154 144 156 175 187 190 189 185 183 182 190 199 203
72 344 67 9 207 238 261 241 247 350 10 46 16 350 351 344 348 355 353 345 346 342 339 336 334 333 258 143 164 154 150 141 145 123 186 168 140 140 167 181 195 183 176 179 182 193 202 207 211
351 62 74 116 228 263 288 257 328 3 19 52 16 359 356 346 349 355 347 348 350 344 345 341 349 345 349 127 162 143 144 144 139 135 165 164 159 155 169 179 162 153 161 170 171 196 206 221 223
96 70 53 130 143 279 306 262 189 105 66 57 32 3 356 346 349 357 355 349 353 355 353 349 349 346 350 344 133 154 149 149 125 181 179 176 146 146 164 153 145 162 178 192 196 216 213 227 233